Location: Unspecified
(0.0000°N, 0.0000°E)
Time: 20:32:49
(UTC+00:00)

Hubble Space Telescope - Pass Details

Date: 06 June 2020
Orbit: 536 x 540 km, 28.5° (Epoch: 29 October)

Event Time Altitude Azimuth Distance (km) Brightness Sun altitude
Rises 20:33:36 0° 304° (NW) 2,672 5.3 -35.2°
Reaches altitude 10° 20:35:52 10° 307° (NW) 1,783 4.2 -35.7°
Enters shadow 20:36:17 13° 308° (NW) 1,618 3.9 -35.8°
